This is the latest recevied weather packets stored in our database for station/object SP4MGL-10. If no packets are shown the sender has not sent any weather packets the latest 10 day(s).
| Time | Temp. | Humidity | Pressure | Rain* | Wind** | Luminosity | Snow |
|---|---|---|---|---|---|---|---|
| 1788199724 | 20.56° C | 78% | 1013.4 hPa | - | - | - | - |
| 1788198824 | 20.56° C | 75% | 1013.3 hPa | - | - | - | - |
| 1788197924 | 21.11° C | 74% | 1013.3 hPa | - | - | - | - |
| 1788197024 | 21.67° C | 72% | 1013.1 hPa | - | - | - | - |
| 1788196124 | 22.22° C | 68% | 1013.1 hPa | - | - | - | - |
| 1788195224 | 22.22° C | 67% | 1013.2 hPa | - | - | - | - |
| 1788194324 | 22.78° C | 65% | 1013.1 hPa | - | - | - | - |
| 1788193424 | 23.33° C | 62% | 1013.2 hPa | - | - | - | - |
| 1788192524 | 23.33° C | 60% | 1013.1 hPa | - | - | - | - |
| 1788191623 | 23.89° C | 57% | 1013.3 hPa | - | - | - | - |
| 1788190723 | 25.56° C | 54% | 1013.4 hPa | - | - | - | - |
| 1788189823 | 26.67° C | 50% | 1013.3 hPa | - | - | - | - |
| 1788188923 | 26.67° C | 50% | 1013.3 hPa | - | - | - | - |
| 1788188023 | 25.56° C | 53% | 1013.5 hPa | - | - | - | - |
| 1788187123 | 24.44° C | 56% | 1013.5 hPa | - | - | - | - |
| 1788186223 | 24.44° C | 54% | 1013.6 hPa | - | - | - | - |
| 1788185323 | 25° C | 53% | 1013.7 hPa | - | - | - | - |
| 1788184423 | 25° C | 52% | 1013.9 hPa | - | - | - | - |
| 1788183522 | 25° C | 53% | 1014.1 hPa | - | - | - | - |
| 1788182622 | 25.56° C | 51% | 1014.2 hPa | - | - | - | - |
| 1788181722 | 25.56° C | 50% | 1014.3 hPa | - | - | - | - |
| 1788180822 | 24.44° C | 55% | 1014.4 hPa | - | - | - | - |
| 1788179922 | 23.89° C | 55% | 1014.4 hPa | - | - | - | - |
| 1788179022 | 23.89° C | 53% | 1014.5 hPa | - | - | - | - |
| 1788178122 | 24.44° C | 52% | 1014.5 hPa | - | - | - | - |
* Rain since midnight (hover to see other rain measurements)
** Current wind speed in m/s (hover to see current wind gust speed)